Tracking 28514 objects as of 24-Feb-2024
HD Live streaming from Space Station
objects crossing your sky now

STARLINK-5947

Track STARLINK-5947 now!
10-day predictions
STARLINK-5947 is classified as:


NORAD ID: 55989
Int'l Code: 2023-042D
Perigee: 565.6 km
Apogee: 566.8 km
Inclination: 43.0 °
Period: 95.8 minutes
Semi major axis: 6937 km
RCS: Unknown
Launch date: March 24, 2022
Source: United States (US)
Launch site: AIR FORCE EASTERN TEST RANGE (AFETR)
Your satellite tracking list
Your tracking list is empty




NASA's NSSDC Master Catalog

Two Line Element Set (TLE):
1 55989U 23042D   24055.37533378  .00000360  00000-0  41717-4 0  9995
2 55989  43.0001 140.7311 0000883 290.0271  70.0476 15.02535395 51281
Source of the keplerian elements: AFSPC